Location: Central Falls
(41.8900°N, 71.3929°W)
Time: 08:31:54
(UTC+00:00)

Tiros 1 despin weight - Pass Details

Date: 09 December 2023
Orbit: 581 x 624 km, 48.2° (Epoch: 29 February)

Event Time Altitude Azimuth Distance (km) Brightness Sun altitude
Rises 21:24:11 0° 243° (WSW) 2,815 ? -2.4°
Reaches altitude 10° 21:26:28 10° 244° (WSW) 1,910 ? -2.8°
Maximum altitude 21:30:51 84° 332° (NNW) 592 ? -3.5°
Drops below altitude 10° 21:35:12 10° 62° (ENE) 1,899 ? -4.2°
Enters shadow 21:36:12 - 63° (ENE) 2,289 ? -4.4°
Sets 21:37:29 0° 63° (ENE) 2,799 - -4.6°
